www.pogodaiklimat.ru

Погода и климат >> Архив погоды >> Казахстан >> Анкаты


ПОГОДА в Анкаты

  • Прогноз погоды в Анкаты
  • Монитор погоды в Анкаты
  • Климат города

АРХИВ ПОГОДЫ в Анкаты

Время (UTC), дата Ветер
(напр.,м/с)
 
Видим.   Явления Облачность Т
(С)
Тd
(С)
f
(%)
Тe
(С)
Тes
(С)
Комфортность P
(гПа)
Po
(гПа)
Тmin
(С)
Tmax
(С)
R
(мм)
R24
(мм)
S
(см)
00 18.05 н/о н/о
03 18.05 В 3 20 км н/о +10.1 -33.3 3 +9 +9 1022.1 1018.8 1
06 18.05 ЮВ 4 н/о н/о +16.7 -28.8 3 +16 +16 1022.4 1019.2
09 18.05 ЮВ 6 н/о н/о +20.3 -26.4 3 +19 +19 1021.9 1018.7
12 18.05 ЮВ 6 н/о н/о +22.6 -21.6 4 +20 +20 1020.9 1017.7
15 18.05 В 2 н/о ясно +20.8 -26.0 3 +20 +21 1020.0 1016.8 +22.6
18 18.05 В 4 н/о н/о +13.5 -31.0 3 +13 +13 1019.9 1016.6 +22.6
21 18.05 В 4 20 км ясно +13.0 -31.3 3 +12 +12 1019.1 1015.8
03 19.05 В 3 20 км н/о +11.3 -32.5 3 +10 +10 1019.2 1015.9 <0.5
06 19.05 В 3 20 км н/о +13.7 -30.9 3 +13 +13 1020.1 1016.8
09 19.05 В 4 20 км н/о +19.0 -27.2 3 +18 +18 1019.6 1016.4
12 19.05 ЮВ 3 16 км н/о +21.8 -25.3 3 +19 +19 1018.9 1015.7
15 19.05 СЗ 1 19 км н/о +17.4 -28.3 3 +19 +19 1019.4 1016.2 +21.8
18 19.05 СВ 3 20 км ясно +14.5 -30.3 3 +14 +14 1018.2 1015.0 +21.8
21 19.05 СВ 3 20 км н/о +15.0 -30.0 3 +15 +15 1016.1 1012.9
00 20.05 СВ 4 20 км н/о +15.7 -29.5 3 +15 +15 1014.8 1011.6
03 20.05 В 5 20 км н/о +16.9 -28.7 3 +16 +16 1013.7 1010.5 1
06 20.05 н/о н/о -24.0 1012.5 1009.3 0.2
09 20.05 ЮВ 6 20 км н/о +25.2 -19.8 4 +22 +22 комфорт 1011.2 1008.1
12 20.05 В 5 19 км н/о +24.0 -20.6 4 +21 +21 комфорт 1010.1 1007.0
15 20.05 В 3 17 км ясно +22.3 -25.0 3 +19 +20 1007.9 1004.8 +25.6
18 20.05 В 3 20 км н/о +17.9 -28.0 3 +18 +18 1006.8 1003.6 +25.6
21 20.05 В 4 20 км н/о +17.1 -28.5 3 +17 +17 1004.6 1001.4
00 21.05 В 3 20 км н/о +16.5 -28.9 3 +16 +16 1002.2 999.0
03 21.05 н/о н/о -28.6 1000.1 997.0
06 21.05 В 3 20 км н/о +18.6 -27.5 3 +19 +19 998.5 995.4 0.8
09 21.05 Ю 5 20 км н/о +21.8 -25.3 3 +19 +19 997.5 994.4
12 21.05 н/о н/о
15 21.05 н/о н/о +24.4
18 21.05 Ю 4 20 км ясно +15.4 -29.7 3 +15 +15 998.7 995.5 +24.4 0.7
21 21.05 Ю 4 20 км ясно +12.7 -31.5 3 +12 +12 998.4 995.2
00 22.05 Ю 3 20 км н/о +13.7 -30.9 3 +13 +13 997.9 994.7
03 22.05 Ю 5 20 км н/о +15.0 -30.0 3 +14 +14 998.0 994.8 <0.5
09 22.05 СЗ 5 20 км н/о +17.7 -28.1 3 +17 +17 999.2 996.1
12 22.05 н/о н/о
15 22.05 С 5 20 км н/о +16.1 -29.2 3 +15 +15 1001.5 998.3 +18.8
18 22.05 С 3 н/о н/о +12.2 -31.9 3 +11 +11 1003.1 999.9 +18.8 0.9
21 22.05 С 4 20 км н/о +11.7 -32.2 3 +10 +10 1003.8 1000.6
00 23.05 СЗ 5 14 км н/о +9.8 -33.5 3 +8 +8 1004.9 1001.6
03 23.05 СЗ 3 20 км н/о +10.1 -33.3 3 +9 +9 1006.7 1003.4 1
06 23.05 СЗ 6 20 км н/о +14.3 -30.4 3 +13 +13 1008.0 1004.8 0.6
09 23.05 З 5 20 км н/о +15.5 -29.6 3 +15 +15 1009.4 1006.2
12 23.05 СЗ 5 20 км н/о +15.9 -29.3 3 +15 +15 1010.9 1007.7
15 23.05 н/о н/о +11.5 -32.3 3 +1 -136 1013.0 1009.7 +17.3
18 23.05 СЗ 4 н/о н/о +6.2 -36.0 3 +4 +4 1015.0 1011.7 +17.3 47
21 23.05 СЗ 3 20 км ясно +4.1 -37.5 3 +2 +2 1016.5 1013.1
00 24.05 ЮЗ 1 20 км ясно +0.8 -39.8 3 +1 +1 1018.0 1014.6
03 24.05 Ю 2 н/о н/о +9.2 -33.9 3 +9 +9 1019.5 1016.2 1
06 24.05 н/о н/о 0.1
09 24.05 н/о н/о
12 24.05 н/о н/о
15 24.05 н/о н/о +15.0
18 24.05 Ю 3 н/о н/о +11.8 -32.2 3 +11 +11 1019.5 1016.2 +15.0

 

Местоположение метеостанции Анкаты (Западно-Казахстанская область, Казахстан): широта 50.83 долгота 52.00 высота над уровнем моря 25 м.

В архиве по умолчанию представлена погода в Анкаты за последнюю неделю. Архивные данные за месяц целиком и за предыдущие месяцы, начиная с января 2011 года, Вы можете получить, выбрав интересующий диапазон дат из раскрывающегося списка и нажав кнопку "Ввод!".

Внимание! Время в таблицах - всемирное. Для получения местного времени необходимо прибавить поправку, которая в Анкаты равна 5 ч.

Смотрите также архив погоды в соседних городах и на ближайших метеорологических станциях:

Погода в Уральске (Западно-Казахстанская область, Казахстан) (69 км)
Погода в Джамбейты (Западно-Казахстанская область, Казахстан) (76 км)
Погода в Аксае (Западно-Казахстанская область, Казахстан) (80 км)
Погода в Январцево (Западно-Казахстанская область, Казахстан) (87 км)
Погода в Чапаево (Западно-Казахстанская область, Казахстан) (91 км)
Погода в Первомайском (Оренбургская область, Россия) (121 км)
Погода в Каменке (Западно-Казахстанская область, Казахстан) (122 км)
Погода в Илеке (Оренбургская область, Россия) (123 км)
Погода в Чингирлау (Западно-Казахстанская область, Казахстан) (150 км)
Погода в Перелюбе (Саратовская область, Россия) (164 км)

Пояснения к столбцам:

Ветер - указаны скорость ветра в м/с - средняя за 10 мин, порывы в срок и между сроками (в фигурных скобках) и направление, откуда дует ветер: С - северный, СВ - северо-восточный, В - восточный, ЮВ - юго-восточный, Ю - южный, ЮЗ - юго-западный, З - западный, СЗ - северо-западный.
Видимость - горизонтальная дальность видимости в метрах или километрах. При видимости от 1 до 10 км при отсутствии осадков обычно наблюдается дымка, при ухудшении видимости до 1 км и менее - туман. В сухую погоду видимость может ухудшаться дымом, пылью или мглою.
Явления - указаны атмосферные явления, наблюдавшиеся в срок или в последний час перед сроком; фигурными скобками обозначены явления, наблюдавшиеся между сроками (за 1-3 часа до срока); квадратными скобками обозначены град или гололедные отложения с указанием их диаметра в мм.
Облачность - указаны через наклонную черту общая и нижняя облачность в баллах и высота нижней границы облаков в метрах; квадратными скобками обозначены формы облаков: Ci - перистые, Cs - перисто-слоистые, Cc - перисто-кучевые, Ac - высококучевые, As - высокослоистые, Sc - слоисто-кучевые, Ns - слоисто-дождевые, Cu - кучевые, Cb - кучево-дождевые. Подробнее классификацию облаков см. в Атласе облаков (PDF).
T - Температура воздуха - температура, измеренная на высоте 2 м над землей.
Td - Температура точки росы - температура, при понижении до которой содержащийся в воздухе водяной пар достигнет насыщения.
f - Относительная влажность воздуха - влажноcть воздуха, измеренная на высоте 2 м над землей.
Te - Эффективная температура - температура, которую ощущает одетый по сезону человек в тени. Характеристика душности погоды. При расчете учитывается влияние влажности воздуха и скорости ветра на теплоощущения человека.
Tes - Эффективная температура на солнце - температура, которую ощущает человек, с поправкой на солнечный нагрев. Характеристика знойности погоды. Зависит от высоты солнца над горизонтом, облачности и скорости ветра. Ночью, в пасмурную погоду, а также при ветре 12 м/с и более поправка равна нулю.
P - Атмосферное давление - приведенное к уровню моря атмосферное давление.
Po - Атмосферное давление - измеренное на уровне метеостанции атмосферное давление.
Tmin - Минимальная температура - минимум температуры воздуха на высоте 2 м над землей.
Tmax - Максимальная температура - максимум температуры воздуха на высоте 2 м над землей.
R - Количество осадков - Количество выпавших осадков за период времени, мм. При наведении курсора мыши на число - период времени, за который выпало указанное количество осадков.
R24 - Количество осадков - Количество выпавших осадков за 24 часа, мм.
S - Снежный покров - Высота снежного покрова, см. При наведении курсора мыши на число - состояние снежного покрова и степень покрытия местности в баллах.